Regional Weather Roundup
Issued by NWS

Home | Current Version | Previous Version | Text Only | Print | Product List | Glossary On
Versions: 1 2 3 4 5 6 7 8 9 10 11 12 13 14 15 16 17 18 19 20 21 22 23 24 25 26 27 28 29 30 31 32 33 34 35 36 37 38 39 40 41 42 43 44 45 46 47 48 49 50
000
ASUS45 KABQ 302010
RWRNM
NEW MEXICO REGIONAL WEATHER ROUNDUP
NATIONAL WEATHER SERVICE ALBUQUERQUE NM
200 PM MDT SUN AUG 30 2015

NOTE: "FAIR" MEANS FEW OR NO CLOUDS BELOW 12,000 FEET AGL WITH NO
       SIGNIFICANT WEATHER OR OBSTRUCTIONS TO VISION.

      THIS PRODUCT IS RELEASED AS TWO VERSIONS.  ONE VERSION NEAR
      THE TOP OF THE HOUR CONTAINING PRELIMINARY DATA FROM ALBUQUERQUE
      AND OTHER STATIONS.  A FINAL VERSION WITH ADDITIONAL DATA IS
      ISSUED ABOUT 10 MINUTES AFTER THE HOUR.

NMZ501-503-504-510>518-302100-
NORTHWEST PLATEAU/NORTHCENTRAL MOUNTAINS

CITY           SKY/WX    TMP DP  RH WIND       PRES   REMARKS
FARMINGTON     SUNNY     87  45  23 VRB3      30.14F
LOS ALAMOS     CLOUDY    75  42  31 W12       30.33F
SANTA FE       PTSUNNY   84  45  25 NE6       30.23F
TAOS           PTSUNNY   81  41  24 SW6       30.30F
ANGEL FIRE     MOCLDY    70  42  36 CALM      30.39F

$$
NMZ402-403-502-505>509-302100-
WESTCENTRAL MOUNTAINS/SOUTHWEST MOUNTAINS

CITY           SKY/WX    TMP DP  RH WIND       PRES   REMARKS
GALLUP         MOSUNNY   85  44  23 VRB5      30.23F
GRANTS         PTSUNNY   77  41  27 W16G26    30.28F
SILVER CITY      N/A     84  50  30 S8        30.23F

$$
NMZ407-409-411-412-302100-
SOUTHERN DESERTS

CITY           SKY/WX    TMP DP  RH WIND       PRES   REMARKS
DEMING         SUNNY     90  52  27 CALM      30.13F
LAS CRUCES     SUNNY     89  50  25 S6        30.15F
ALAMOGORDO     SUNNY     86  50  28 CALM      30.13F
T OR C         SUNNY     88  49  25 S8G17     30.14F

$$
NMZ519>523-302100-
CENTRAL VALLEYS/CENTRAL HIGHLANDS

CITY           SKY/WX    TMP DP  RH WIND       PRES   REMARKS
ALBUQUERQUE    MOSUNNY   86  46  24 W6        30.18F
DOUBLE EAGLE   MOSUNNY   86  50  28 VRB6      30.21F
MORIARTY ARPT  FAIR      84  44  24 SW8       30.24F
CLINES CORNERS MOSUNNY   80  46  30 NW7       30.29F
BELEN          FAIR      88  42  20 S3        30.16F
SOCORRO        FAIR      89  47  23 S7        30.14F

$$
NMZ524>526-539-540-302100-
SOUTHCENTRAL MOUNTAINS

CITY           SKY/WX    TMP DP  RH WIND       PRES   REMARKS
RUIDOSO        SUNNY     79  45  29 MISG      30.32F

$$
NMZ527>531-302100-
NORTHEAST HIGHLANDS/NORTHEAST PLAINS

CITY           SKY/WX    TMP DP  RH WIND       PRES   REMARKS
LAS VEGAS      MOSUNNY   82  45  27 SW17      30.27S
RATON          MOSUNNY   87  37  17 SE8       30.19F
CLAYTON        SUNNY     86  55  34 SW12G20   30.13F

$$
NMZ532>537-302100-
EASTCENTRAL PLAINS

CITY           SKY/WX    TMP DP  RH WIND       PRES   REMARKS
TUCUMCARI      SUNNY     89  51  27 SW12G17   30.09F
CANNON AFB     NOT AVBL
CLOVIS AIRPORT SUNNY     84  50  30 S10       30.15F

$$
NMZ028-029-538-302100-
SOUTHEAST PLAINS

CITY           SKY/WX    TMP DP  RH WIND       PRES   REMARKS
ROSWELL        SUNNY     88  51  28 SE8       30.11F
ARTESIA        SUNNY     88  50  27 VRB6G13   30.11F
CARLSBAD       SUNNY     91  50  24 VRB7      30.08F
HOBBS          MOSUNNY   84  52  32 CALM      30.14F


$$


USA.gov is the U.S. government's official web portal to all federal, state and local government web resources and services.